Location: Ozark
(37.5425°N, 88.7628°W)
Time: 01:44:13
(UTC+00:00)

USA 32 - Pass Details

Date: 26 January 2020
Orbit: 777 x 783 km, 85.0° (Epoch: 29 January)

Event Time Altitude Azimuth Distance (km) Brightness Sun altitude
Rises 23:25:15 0° 178° (S) 3,243 7.5 -3.3°
Reaches altitude 10° 23:27:36 10° 177° (S) 2,319 6.7 -3.7°
Maximum altitude 23:32:47 76° 92° (E) 804 4.0 -4.7°
Drops below altitude 10° 23:38:00 10° 7° (N) 2,334 6.3 -5.6°
Sets 23:40:22 0° 6° (N) 3,266 7.0 -6.1°
